Wind_Speed
33 33 32 31 29 27 26 26 26 26 26 27 27 28 29 30 30 31 31 31 31 30 30 30 30 31 31 31 31 31 31 30 29 28 26 24 22 21 19 18 16 15 14
31 31 30 28 27 26 26 26 26 26 26 27 27 28 29 30 30 30 31 31 31 30 30 29 30 30 31 31 31 31 31 31 29 29 28 26 24 23 21 18 16 15 13
32 31 30 28 27 26 26 26 27 28 29 29 30 30 31 31 31 31 32 33 33 33 32 31 30 30 30 30 30 30 31 31 30 30 30 28 26 24 23 20 18 16 14
33 33 32 31 30 29 28 28 28 29 30 31 31 31 32 32 32 32 33 34 35 35 34 33 31 31 31 31 31 31 31 31 31 32 32 30 29 27 25 22 21 18 17
33 34 34 35 35 34 33 32 32 32 33 34 34 34 34 34 34 34 35 35 35 35 35 34 33 32 32 32 31 31 30 31 32 33 32 31 31 30 28 25 23 21 19
36 36 37 38 39 40 40 39 38 38 39 39 39 38 39 39 38 37 37 37 36 35 35 35 34 33 32 31 30 29 28 29 30 32 32 32 32 31 29 27 25 23 21
36 38 39 41 42 43 44 44 44 45 45 45 44 44 43 43 41 40 39 38 36 35 35 35 35 34 33 31 30 28 28 29 30 31 32 32 31 29 28 28 27 27 24
36 38 40 42 44 45 46 47 48 49 49 49 48 48 48 46 44 41 39 37 36 35 34 34 34 34 33 32 32 31 30 31 32 33 33 33 34 31 27 26 26 26 25
33 35 37 40 42 43 45 47 48 49 49 48 48 47 47 46 44 42 40 38 37 35 33 33 33 34 33 33 33 33 33 33 34 35 35 35 34 33 33 30 27 24 24
31 32 34 36 38 39 40 41 42 42 42 41 39 39 38 38 39 39 39 38 38 36 35 34 34 34 34 34 34 34 34 34 34 34 34 34 33 32 32 32 31 29 26
26 27 28 29 30 30 30 31 31 31 31 31 30 30 30 32 33 34 36 37 38 38 37 37 37 37 37 36 36 36 36 35 34 34 33 33 32 32 31 31 31 31 31
21 21 21 20 20 19 19 19 20 22 23 23 23 24 25 26 28 29 31 33 36 37 38 38 38 39 39 39 38 38 38 38 37 36 35 34 34 33 33 32 32 32 32
18 18 18 18 18 18 18 18 18 19 20 20 21 21 21 22 22 23 25 26 28 31 33 36 37 39 40 41 40 40 40 40 40 39 39 38 37 36 36 35 34 33 33
16 17 17 18 19 20 20 21 21 22 22 23 23 23 24 24 23 23 23 23 23 24 24 26 28 30 33 36 38 40 42 42 42 42 41 41 41 40 38 37 36 36 35
17 17 18 19 20 21 22 23 24 24 25 26 27 28 29 30 30 30 29 28 28 27 26 26 26 26 27 28 30 33 36 38 39 41 42 43 43 42 42 41 39 38 38
19 19 20 21 22 24 25 26 27 28 29 30 31 32 34 35 36 36 36 35 34 33 33 32 32 31 30 29 28 27 27 28 30 32 35 37 39 40 41 41 40 39 39
18 19 20 21 22 23 25 26 27 28 30 31 33 34 36 37 39 40 41 41 41 40 40 39 38 37 36 35 34 33 32 30 28 28 28 29 30 32 33 34 35 36 37
15 17 19 20 22 23 24 26 27 28 30 31 32 33 35 37 39 40 41 42 43 44 44 44 44 43 42 41 40 40 39 37 36 34 32 31 31 31 31 31 32 33 34
15 16 18 20 21 23 24 25 26 28 29 30 32 33 34 36 38 39 40 41 42 44 45 46 46 47 47 47 47 47 47 46 44 42 41 39 38 36 35 34 34 33 33
15 16 18 20 22 23 24 26 27 28 29 30 32 33 35 36 38 39 40 40 41 43 44 45 47 48 49 50 51 52 52 52 51 50 49 47 45 44 42 41 39 38 37
18 18 19 21 22 23 24 25 27 28 29 30 32 34 34 37 38 39 40 41 41 42 44 45 46 47 48 50 51 52 53 55 55 55 54 53 52 50 49 47 46 45 43
19 19 19 20 21 22 23 24 26 27 29 32 34 37 37 38 39 39 40 41 41 41 42 43 44 46 47 47 49 50 52 53 54 54 54 55 54 54 53 53 52 51 49
18 18 19 20 22 23 25 26 27 29 32 35 37 39 40 40 39 39 38 38 39 39 39 40 41 43 44 45 46 47 49 51 52 52 53 53 53 54 54 54 54 53 52
18 19 20 22 24 26 27 28 30 33 36 39 40 41 41 40 39 37 36 36 36 37 37 38 40 41 42 43 44 45 45 46 48 49 50 51 51 52 52 53 53 53 53
19 20 22 24 26 28 29 31 34 37 39 40 40 40 39 37 35 34 33 32 32 33 33 34 36 38 39 40 42 43 43 45 46 47 49 51 52 52 52 53 53 53 52
21 22 23 26 28 30 31 33 35 38 39 39 39 37 36 34 32 31 30 29 28 28 28 28 30 31 33 35 36 37 39 40 42 43 45 47 49 51 51 52 53 53 53
Wind_Direction
264 266 267 265 262 258 256 254 252 251 250 250 250 252 256 261 264 267 269 271 272 273 275 276 276 274 273 273 274 274 271 266 262 262 267 271 274 277 281 285 287 283 277
263 263 263 261 258 256 255 253 253 252 253 254 255 257 259 262 264 266 268 270 270 271 273 274 275 274 274 273 272 271 268 264 260 259 263 267 270 272 274 276 278 276 270
260 259 258 256 254 255 258 259 258 257 258 260 261 262 263 263 263 266 268 269 270 270 270 271 272 273 273 272 270 269 267 263 259 258 260 264 266 268 268 267 266 267 260
255 255 255 254 255 257 259 262 264 264 264 264 263 264 264 264 265 267 269 269 269 269 269 270 270 271 270 270 268 266 264 260 257 258 259 262 263 263 263 262 259 256 250
257 257 256 256 258 260 261 263 265 266 267 266 266 266 267 266 266 267 268 269 269 269 268 268 268 269 269 268 267 264 262 259 256 257 259 261 262 261 258 257 255 251 246
261 260 260 260 262 263 263 264 265 265 266 267 267 268 268 268 268 268 268 268 269 268 267 266 267 267 267 266 265 262 260 257 254 255 256 259 261 258 253 253 251 247 244
264 263 262 262 262 263 262 263 264 264 265 266 267 267 268 268 268 269 268 268 268 268 266 265 265 264 264 263 261 259 257 254 253 254 255 255 257 253 249 246 242 240 239
264 263 262 262 262 262 263 263 264 264 264 265 266 266 267 267 268 269 269 268 267 267 266 264 263 262 262 261 258 256 254 253 253 253 255 256 255 256 250 244 239 236 233
268 267 266 266 266 266 265 265 265 266 266 267 268 268 268 268 268 267 266 264 263 263 264 263 261 260 259 257 256 255 254 254 254 254 256 258 260 260 258 257 250 242 237
271 270 270 269 269 269 269 268 267 267 267 268 269 269 268 267 266 264 262 259 258 258 258 259 259 257 255 253 253 254 254 253 253 253 254 256 258 259 259 258 257 252 249
275 273 272 272 272 271 270 268 267 266 266 267 268 268 268 267 265 262 259 256 255 255 255 256 257 257 254 252 251 252 252 251 251 251 252 253 254 256 257 257 257 254 253
276 274 273 273 274 273 271 269 268 265 264 266 269 270 271 270 268 265 262 259 257 257 256 254 255 255 255 255 255 254 253 251 250 249 250 251 253 255 256 256 256 254 253
277 274 272 271 271 273 271 268 269 269 269 270 272 273 274 276 275 273 269 266 263 261 260 258 256 254 255 256 258 258 257 256 254 252 251 251 252 254 256 257 258 257 255
279 277 275 274 273 270 268 266 267 267 269 272 274 275 275 276 276 277 277 276 273 270 267 265 264 262 260 259 259 258 257 255 255 254 253 252 252 253 254 255 255 255 255
281 281 280 277 274 271 269 269 269 270 271 274 275 274 274 274 274 275 275 274 275 275 274 274 273 272 269 266 264 261 258 256 254 253 252 251 251 252 253 253 253 254 254
280 281 281 280 279 278 276 276 274 274 273 272 272 272 272 273 273 274 274 273 271 270 269 269 269 269 269 268 267 265 263 260 257 255 253 252 252 252 252 252 252 253 254
283 283 283 283 282 281 281 281 279 278 276 275 274 273 272 272 272 272 273 272 271 269 267 265 263 262 262 261 261 262 261 261 259 256 254 253 252 251 250 250 251 252 252
289 288 288 287 287 286 286 285 285 284 282 280 279 278 277 276 275 273 273 272 270 268 267 264 262 259 258 256 254 255 256 257 257 256 255 255 254 252 251 250 251 251 252
297 296 295 294 293 292 292 291 291 290 289 288 287 285 284 282 280 278 276 274 272 270 267 265 262 259 256 254 252 251 251 251 252 253 254 255 255 253 252 251 251 251 251
303 303 302 301 300 299 297 296 296 295 294 294 294 294 294 292 289 285 282 278 275 273 270 267 263 260 258 255 253 251 250 250 250 251 252 253 253 253 253 252 252 252 251
305 306 307 306 303 301 300 300 299 299 299 299 299 299 299 296 293 289 286 282 278 275 272 269 266 262 259 257 256 254 253 252 252 251 251 252 252 253 253 253 253 253 253
307 309 312 312 311 310 309 309 309 308 307 306 305 304 302 300 296 292 288 283 279 276 273 270 268 265 261 258 257 256 255 254 254 254 254 253 253 253 253 253 253 253 253
309 316 322 324 324 323 320 319 318 317 316 315 313 310 308 305 302 297 293 288 284 279 274 271 267 265 263 260 258 257 256 256 256 256 256 255 255 254 254 254 254 254 254
310 319 325 328 328 327 326 324 323 322 321 319 316 313 311 308 305 301 296 291 287 282 277 273 269 265 262 259 258 257 256 256 255 255 256 256 255 255 254 254 254 254 254
311 318 323 326 327 327 327 326 325 323 322 320 318 317 315 314 311 308 303 297 292 287 281 276 271 267 263 260 258 257 256 256 256 256 256 256 256 255 255 254 253 253 252
310 317 323 326 327 328 327 327 324 322 321 321 321 321 321 319 317 315 311 306 300 295 288 281 275 270 266 264 261 260 259 259 259 259 259 258 258 256 255 254 252 251 249
Height
5799 5799 5798 5797 5796 5796 5796 5796 5796 5796 5796 5797 5798 5799 5801 5802 5803 5804 5804 5805 5805 5805 5805 5805 5805 5804 5804 5805 5805 5805 5806 5806 5806 5806 5805 5805 5805 5805 5804 5804 5803 5802 5801
5791 5791 5790 5790 5790 5790 5790 5790 5790 5790 5790 5791 5791 5793 5794 5795 5796 5797 5797 5797 5797 5797 5798 5798 5798 5797 5796 5797 5797 5798 5798 5799 5800 5800 5800 5799 5800 5800 5800 5800 5799 5799 5798
5783 5783 5784 5784 5784 5784 5784 5784 5783 5784 5784 5784 5785 5786 5787 5788 5789 5789 5789 5789 5789 5789 5790 5791 5790 5790 5789 5789 5789 5790 5790 5791 5793 5794 5794 5794 5794 5795 5795 5795 5795 5795 5795
5775 5776 5776 5777 5777 5777 5777 5776 5776 5777 5777 5777 5778 5778 5779 5780 5780 5780 5781 5781 5781 5781 5781 5782 5782 5782 5782 5781 5781 5782 5782 5784 5785 5787 5787 5788 5788 5789 5789 5789 5790 5790 5790
5767 5768 5768 5769 5769 5769 5769 5768 5769 5769 5769 5769 5770 5770 5770 5770 5771 5771 5771 5771 5772 5772 5773 5773 5774 5774 5773 5773 5773 5774 5774 5775 5777 5779 5780 5781 5781 5782 5783 5783 5783 5784 5785
5758 5758 5758 5759 5759 5759 5759 5759 5759 5760 5760 5760 5760 5760 5760 5761 5761 5761 5761 5761 5762 5762 5763 5764 5765 5765 5765 5765 5765 5766 5766 5767 5769 5771 5772 5773 5774 5774 5775 5776 5777 5778 5779
5748 5748 5748 5748 5748 5748 5748 5748 5748 5749 5749 5749 5749 5749 5749 5750 5750 5750 5751 5751 5752 5752 5753 5754 5755 5756 5756 5757 5758 5758 5759 5760 5762 5763 5764 5765 5766 5767 5768 5768 5769 5771 5773
5737 5737 5736 5736 5736 5736 5736 5736 5736 5736 5736 5736 5736 5737 5737 5737 5738 5739 5740 5741 5741 5742 5743 5744 5746 5746 5747 5748 5749 5750 5751 5752 5754 5755 5756 5758 5758 5759 5759 5760 5761 5763 5765
5727 5726 5726 5726 5725 5725 5725 5724 5724 5724 5724 5724 5724 5724 5724 5725 5726 5727 5728 5730 5731 5732 5733 5734 5736 5737 5738 5739 5740 5741 5742 5743 5745 5746 5747 5748 5749 5751 5752 5753 5754 5756 5758
5718 5717 5717 5716 5715 5715 5714 5713 5713 5713 5712 5713 5713 5713 5713 5713 5714 5715 5717 5718 5720 5721 5723 5724 5725 5726 5728 5729 5731 5732 5733 5734 5735 5737 5738 5739 5741 5742 5744 5746 5747 5749 5751
5710 5709 5708 5707 5706 5705 5704 5703 5703 5703 5704 5704 5704 5704 5704 5704 5704 5705 5706 5707 5708 5710 5711 5713 5715 5716 5717 5718 5720 5721 5723 5724 5725 5727 5728 5730 5731 5733 5735 5737 5739 5741 5743
5702 5701 5701 5700 5699 5698 5697 5697 5696 5696 5697 5697 5697 5697 5696 5696 5696 5696 5696 5697 5698 5699 5700 5701 5703 5705 5706 5708 5709 5711 5712 5714 5715 5716 5718 5720 5722 5724 5726 5728 5729 5732 5734
5696 5695 5695 5694 5694 5693 5693 5692 5691 5691 5691 5691 5691 5690 5690 5689 5689 5688 5688 5688 5688 5689 5689 5690 5691 5692 5694 5695 5697 5699 5701 5702 5704 5705 5707 5709 5711 5713 5716 5718 5720 5722 5724
5690 5690 5689 5688 5688 5688 5687 5687 5686 5686 5685 5685 5685 5684 5684 5683 5682 5682 5681 5681 5680 5680 5680 5680 5681 5681 5682 5683 5684 5686 5688 5690 5692 5694 5696 5698 5700 5702 5705 5707 5710 5712 5714
5684 5684 5683 5682 5682 5681 5681 5680 5680 5679 5679 5678 5677 5677 5676 5675 5675 5674 5674 5673 5673 5673 5672 5672 5672 5673 5673 5673 5674 5674 5676 5677 5679 5681 5683 5685 5688 5691 5693 5696 5698 5701 5703
5679 5679 5678 5677 5676 5675 5674 5673 5673 5672 5671 5670 5669 5668 5667 5666 5665 5664 5664 5664 5663 5663 5663 5663 5663 5664 5664 5665 5665 5666 5666 5667 5668 5669 5671 5673 5676 5678 5681 5684 5686 5689 5691
5674 5673 5672 5671 5670 5668 5667 5666 5664 5663 5662 5660 5659 5658 5656 5655 5654 5653 5653 5652 5652 5652 5652 5652 5652 5653 5654 5655 5656 5657 5658 5659 5659 5660 5661 5663 5665 5667 5670 5672 5674 5677 5679
5669 5668 5667 5665 5663 5662 5660 5658 5656 5654 5652 5650 5649 5647 5645 5643 5642 5641 5640 5639 5638 5638 5638 5638 5639 5640 5641 5642 5644 5645 5646 5648 5649 5651 5652 5654 5655 5657 5659 5661 5664 5666 5668
5665 5663 5661 5659 5657 5655 5652 5650 5648 5645 5643 5640 5638 5636 5634 5632 5630 5628 5627 5625 5624 5623 5623 5623 5623 5624 5625 5627 5629 5631 5632 5634 5636 5639 5641 5642 5645 5646 5648 5651 5653 5655 5658
5659 5657 5655 5653 5650 5647 5645 5642 5639 5636 5633 5631 5628 5625 5622 5620 5617 5615 5613 5611 5609 5608 5607 5607 5607 5608 5608 5610 5612 5614 5616 5618 5621 5623 5626 5629 5631 5634 5636 5638 5641 5644 5646
5654 5652 5649 5647 5644 5641 5638 5635 5632 5628 5625 5622 5619 5616 5613 5608 5605 5602 5599 5596 5594 5592 5591 5591 5590 5590 5591 5593 5594 5597 5599 5601 5603 5607 5610 5613 5616 5619 5622 5624 5627 5630 5633
5649 5647 5644 5641 5638 5635 5631 5628 5625 5621 5617 5614 5609 5605 5601 5597 5592 5588 5584 5581 5579 5577 5576 5575 5574 5574 5574 5576 5577 5579 5581 5583 5586 5590 5593 5596 5599 5602 5605 5608 5611 5614 5618
5644 5641 5639 5636 5632 5629 5625 5621 5617 5613 5609 5604 5599 5594 5588 5583 5578 5574 5570 5566 5564 5562 5560 5559 5558 5558 5558 5559 5560 5562 5564 5567 5570 5573 5575 5578 5581 5584 5588 5591 5594 5598 5601
5639 5636 5633 5629 5626 5622 5617 5613 5609 5604 5599 5594 5588 5582 5576 5570 5565 5560 5556 5552 5549 5547 5545 5543 5543 5542 5543 5543 5544 5546 5548 5551 5553 5555 5558 5561 5563 5566 5570 5573 5576 5580 5584
5633 5630 5626 5623 5618 5614 5609 5604 5600 5595 5589 5584 5577 5571 5564 5558 5553 5548 5544 5540 5536 5533 5531 5529 5528 5527 5528 5528 5529 5531 5533 5535 5537 5539 5541 5543 5546 5549 5552 5555 5559 5562 5566
5626 5623 5620 5616 5611 5606 5601 5596 5592 5587 5581 5575 5568 5562 5555 5549 5544 5539 5534 5530 5526 5523 5520 5518 5516 5515 5515 5515 5516 5517 5519 5520 5522 5523 5524 5526 5528 5531 5534 5537 5540 5544 5548